Location: San Antonio
(29.4240°N, 98.4930°W)
Time: 16:16:04
(UTC-05:00)

ISS - All Passes

Search period start: 30 July 2014 00:00
Search period end: 09 August 2014 00:00
Orbit: 411 x 419 km, 51.6° (Epoch: 30 July)

Date Brightness Start Highest point End Pass type
(mag) Time Alt. Az. Time Alt. Az. Time Alt. Az.
30 Jul - 00:13:38 10° W 00:15:59 18° NW 00:18:22 10° N night (unlit)
30 Jul - 06:46:23 10° NNW 06:49:13 25° NE 06:52:03 10° E daylight
30 Jul - 08:23:17 10° WNW 08:25:48 20° SW 08:28:18 10° S daylight
30 Jul - 21:48:38 10° SSE 21:50:35 15° SE 21:52:33 10° E night (unlit)
30 Jul - 23:24:03 10° WSW 23:27:03 31° NW 23:30:05 10° NNE night (unlit)
31 Jul - 05:58:16 10° N 06:00:15 15° NE 06:02:14 10° ENE visible
31 Jul - 07:33:55 10° WNW 07:37:05 40° SW 07:40:15 10° SSE daylight
31 Jul - 22:34:54 10° SW 22:38:11 65° NW 22:41:30 10° NE night (unlit)
01 Aug - 06:44:57 10° NW 06:48:19 89° NE 06:51:39 10° SE daylight
01 Aug - 21:46:08 10° SSW 21:49:23 56° SE 21:52:39 10° NE visible
01 Aug - 23:25:01 10° WNW 23:26:20 12° NW 23:27:39 10° N visible
02 Aug - 05:56:15 10° NNW 05:59:28 41° NE 06:02:39 10° ESE visible
02 Aug - 07:34:44 10° WSW 07:35:50 11° SW 07:36:56 10° SW daylight
02 Aug - 20:57:50 10° S 21:00:38 26° SE 21:03:27 10° ENE visible
02 Aug - 22:34:47 10° W 22:37:18 20° NW 22:39:50 10° N visible
03 Aug - 05:07:49 10° NNW 05:10:32 22° NE 05:13:14 10° E visible
03 Aug - 06:44:27 10° WNW 06:47:09 23° SW 06:49:50 10° S daylight
03 Aug - 20:10:22 10° SSE 20:11:56 13° SE 20:13:30 10° E daylight
03 Aug - 21:45:16 10° WSW 21:48:21 36° NW 21:51:27 10° NNE visible
04 Aug - 04:19:47 10° N 04:21:30 13° NE 04:23:13 10° ENE visible
04 Aug - 05:55:09 10° NW 05:58:24 47° SW 06:01:37 10° SSE visible
04 Aug - 20:56:10 10° SW 20:59:28 77° NW 21:02:47 10° NE visible
05 Aug - 05:06:13 10° NW 05:09:35 77° NE 05:12:55 10° SE visible
05 Aug - 20:07:28 10° SSW 20:10:38 47° SE 20:13:51 10° NE daylight
05 Aug - 21:45:53 10° WNW 21:47:32 13° NW 21:49:11 10° N visible
06 Aug - 04:17:33 10° NNW 04:20:41 36° NE 04:23:48 10° ESE night (unlit)
06 Aug - 05:55:28 10° W 05:57:06 13° SW 05:58:44 10° SSW visible
06 Aug - 19:19:14 10° S 19:21:52 22° SE 19:24:31 10° ENE daylight
06 Aug - 20:55:50 10° W 20:58:29 22° NW 21:01:10 10° NNE visible
07 Aug - 03:29:08 10° N 03:31:42 20° NE 03:34:15 10° E night (unlit)
07 Aug - 05:05:31 10° WNW 05:08:22 26° SW 05:11:13 10° S night (unlit)
07 Aug - 18:32:11 10° SE 18:33:09 11° SE 18:34:07 10° ESE daylight
07 Aug - 20:06:22 10° WSW 20:09:31 41° NW 20:12:41 10° NNE daylight
08 Aug - 02:41:16 10° N 02:42:37 12° NE 02:43:59 10° ENE night (unlit)
08 Aug - 04:16:17 10° NW 04:19:34 56° SW 04:22:51 10° SSE night (unlit)
08 Aug - 19:17:19 10° SW 19:20:37 90° NW 19:23:56 10° NE daylight
